IUS DEB, 26078

Orbit data source: Space-Track

IUS DEB, 26078 is space debris originally from a launch on Fri, 23 Jul 1999 UTC launched from the Air Force Eastern Test Range (AFETR). Debris objects in space refer to the collection of defunct objects orbiting the Earth. Examples of debris include non-operational satellites, rocket bodies, and fragments generated from explosions, collisions, or faulty payload assembly.

Loading next visibility...
Identifier
26078, 1999-040F
Orbit
Active
Country
Flag of USUS
Related business
Manufacturer
Boeing/Kent
Mission
Spacecraft
Bus & Motor
Unknown
Mass
Unknown
Launch date (UTC)
1999-07-23 (27 years ago)
Launch vehicle
Unknown
Launch site
Air Force Eastern Test Range (AFETR)
Object type
Payload
Rocket body
Debris
Shape & HBR
Unknown shape, 0.1 m
Radar Cross Section
Small (<0.1 m²)

Expand to show TLE details & history
Last TLE update: 1 month ago

TLE from 1 month ago
0 IUS DEB
1 26078U 99040F   26143.06035976  .00004399  00000-0  68866-3 0  9999
2 26078  28.4270 298.9885 4385303 187.1835 163.6072  6.66261594309389
Epoch: 2026-05-23T01:26Z
TLE epoch observation values (Epoch: 2026-05-23T01:26:55.083Z)
Latitude
-0.00002°
Longitude
36.57668°
Altitude
10,677.609 km
Speed
3.652 km/s
True Right ascension
19h 55m 57s
True Declination
0° 00' 00"
Sunlit
Object was in daylight at epoch
Visualization orbit readout
Latitude
Unknown
Longitude
Unknown
Altitude
Unknown
Speed
Unknown
Apparent Right ascension
Unknown
Apparent Declination
Unknown
Sunlit
N/A
Visualization observer readout
Local Sidereal Time
23:21:13
Azimuth
Unknown
Elevation
Unknown
Doppler factor
Unknown
Orbital elements
Apogee altitude
10,788.299 km
Perigee altitude
322.058 km
Semi-major axis
11,933.316 km
Eccentricity
0.43853
Inclination
28.427°
RAAN
298.9885°
Arg. of periapsis
187.1835°
True anomaly
172.85191°
Mean anomaly
163.6072°
Eccentric anomaly
168.58148°
Mean motion
1.66495 °/min
Orbital period
216.22 mins
BSTAR
0.00068866
Loading maneuver chart data...
Computing Atmospheric mass density...
Loading historical data...
Loading historical data...
Loading historical data...
Loading historical data...
Loading historical data...
Loading historical data...
Loading historical data...

Documentation

Showing up to 5 results
|